Showing default

HULIANWANG DIGUI-82, 65817

Orbit data source: Space-Track

HULIANWANG DIGUI-82, 65817 is a payload satellite owned by Zhongguo Xingwang (CN) in LEO that was launched on Sat, 27 Sep 2025 UTC via a CHANG ZHENG 6A launch vehicle from the Taiyaun Space Center, China (TSC). Payload-class satellites include a variety of spacecraft equipped with specific instruments for various scientific and technological missions. These include communications satellites like Starlink; space stations such as the ISS; scientific satellites like the Hubble; Earth observation satellites from companies like Planet Labs, Umbra, and HawkEye 360; GPS; miniature CubeSats for education and research; and military/defense satellites.

Loading next visibility...
Identifier
65817, 2025-220A
Orbit
LEO
Country
Flag of CNCN / PRC
Related business
Manufacturer
SECM
Mission
Operational Civil Communications
Bus & Motor
XINGWANG S, Unknown motor
Mass
~800 kg wet, ~800 kg dry
Launch date (UTC)
2025-09-27 (9 months ago)
Launch vehicle
CHANG ZHENG 6A
Launch site
Taiyaun Space Center, China (TSC)
Object type
Payload
Rocket body
Debris
Shape & HBR
Box + 2 Pan, 1.1 m
Radar Cross Section
5.935 m², Large (>1 m²)

Expand to show TLE details & history
Last TLE update: 12 hours ago

TLE from 12 hours ago
0 HULIANWANG DIGUI-82
1 65817U 25220A   26171.33730667  .00000025  00000-0  25091-4 0  9998
2 65817  86.4968  42.7965 0001449  97.4855 262.6444 13.24408276 35338
Epoch: 2026-06-20T08:05Z
TLE epoch observation values (Epoch: 2026-06-20T08:05:43.296Z)
Latitude
0.00002°
Longitude
12.81272°
Altitude
1,170.963 km
Speed
7.268 km/s
True Right ascension
02h 51m 11s
True Declination
0° 00' 00"
Sunlit
Object was in daylight at epoch
Visualization orbit readout
Latitude
Unknown
Longitude
Unknown
Altitude
Unknown
Speed
Unknown
Apparent Right ascension
Unknown
Apparent Declination
Unknown
Sunlit
N/A
Visualization observer readout
Local Sidereal Time
07:20:38
Azimuth
Unknown
Elevation
Unknown
Doppler factor
Unknown
Orbital elements
Apogee altitude
1,166.142 km
Perigee altitude
1,163.956 km
Semi-major axis
7,543.186 km
Eccentricity
0.00014
Inclination
86.4968°
RAAN
42.7965°
Arg. of periapsis
97.4855°
True anomaly
262.62793°
Mean anomaly
262.6444°
Eccentric anomaly
262.63617°
Mean motion
3.31292 °/min
Orbital period
108.67 mins
BSTAR
0.000025091
Loading maneuver chart data...
Computing Atmospheric mass density...
Loading historical data...
Loading historical data...
Loading historical data...
Loading historical data...
Loading historical data...
Loading historical data...
Loading historical data...

Documentation

Showing up to 5 results
|